Weather History for Iliamna, AK

Change the Weather History Date:

Friday, October 5, 2012

  Actual Average Record
Temperature  
Mean Temperature 47 °F -  
Max Temperature 50 °F 46 °F 57 °F (1984)
Min Temperature 44 °F 34 °F 19 °F (1958)
Degree Days  
Heating Degree Days 18    
Moisture  
Dew Point 42 °F    
Average Humidity 80    
Maximum Humidity 100    
Minimum Humidity 62    
Precipitation  
Precipitation 0.01 in - - ()
Sea Level Pressure  
Sea Level Pressure 30.11 in    
Wind  
Wind Speed 9 mph (ESE)    
Max Wind Speed 17 mph    
Max Gust Speed 25 mph    
Visibility 10 miles    
Events Rain    
Averages and records for this station are not official NWS values.
T = Trace of Precipitation, MM = Missing Value Source: NWS Daily Summary

Daily Weather History Graph

Daily Weather History Graph

Search for Another Location

Airport:

Trip Planner

Search our weather history database for the weather conditions in past years. The results will help you decide how hot, cold, wet, or windy it might be!

Date:

Astronomy

Oct. 05, 2012 Rise Set
Actual Time 8:36 AM AKDT 7:38 PM AKDT
Civil Twilight 7:54 AM AKDT 8:19 PM AKDT
Nautical Twilight 7:06 AM AKDT 9:07 PM AKDT
Astronomical Twilight 6:17 AM AKDT 9:56 PM AKDT
Moon 9:55 PM AKDT (10/5) 3:08 PM AKDT (10/5)
Length of Visible Light 12h 24m
Length of Day
11h 02m
Waning Gibbous, 73% of the Moon is Illuminated
Oct 5
Waning Gibbous
Oct 7
Last Quarter
Oct 15
New
Oct 21
First Quarter
Oct 29
Full

Hourly Weather History & Observations

Time (AKDT) Temp. Windchill Dew Point Humidity Pressure Visibility Wind Dir Wind Speed Gust Speed Precip Events Conditions
12:53 AM 48.9 °F - 39.0 °F 69% 30.09 in 10.0 mi ESE 11.5 mph - N/A   Partly Cloudy
1:53 AM 48.0 °F - 39.9 °F 74% 30.10 in 10.0 mi East 8.1 mph - N/A   Partly Cloudy
2:53 AM 48.0 °F - 39.0 °F 71% 30.11 in 10.0 mi East 9.2 mph - N/A   Clear
3:53 AM 48.0 °F - 39.0 °F 71% 30.11 in 10.0 mi ESE 11.5 mph - N/A   Clear
4:53 AM 48.0 °F - 41.0 °F 77% 30.11 in 10.0 mi East 12.7 mph - N/A   Clear
5:53 AM 48.0 °F - 39.9 °F 74% 30.12 in 10.0 mi East 11.5 mph - N/A   Clear
6:53 AM 48.0 °F - 41.0 °F 77% 30.12 in 10.0 mi East 12.7 mph 19.6 mph N/A   Clear
7:53 AM 48.0 °F - 41.0 °F 77% 30.12 in 10.0 mi East 10.4 mph - N/A   Clear
8:53 AM 48.0 °F - 39.9 °F 74% 30.12 in 10.0 mi ESE 9.2 mph - N/A   Clear
9:53 AM 48.9 °F - 41.0 °F 74% 30.13 in 10.0 mi ESE 8.1 mph - N/A   Clear
10:53 AM 48.9 °F - 42.1 °F 77% 30.12 in 10.0 mi ESE 11.5 mph - N/A   Clear
11:53 AM 48.9 °F - 42.1 °F 77% 30.11 in 10.0 mi ESE 10.4 mph - N/A   Clear
12:53 PM 48.9 °F - 42.1 °F 77% 30.09 in 10.0 mi ESE 11.5 mph - N/A   Mostly Cloudy
1:53 PM 50.0 °F - 42.1 °F 74% 30.10 in 10.0 mi ESE 17.3 mph 25.3 mph N/A   Mostly Cloudy
2:53 PM 48.9 °F - 41.0 °F 74% 30.11 in 10.0 mi SE 17.3 mph 24.2 mph N/A   Overcast
3:53 PM 48.0 °F - 42.1 °F 80% 30.10 in 10.0 mi ESE 11.5 mph - N/A   Overcast
4:53 PM 48.0 °F - 43.0 °F 83% 30.09 in 10.0 mi ESE 11.5 mph - N/A   Scattered Clouds
5:53 PM 48.0 °F - 44.1 °F 86% 30.09 in 10.0 mi SE 5.8 mph - N/A   Clear
6:53 PM 46.9 °F - 44.1 °F 90% 30.09 in 10.0 mi SSE 4.6 mph - N/A   Scattered Clouds
7:53 PM 46.9 °F - 43.0 °F 86% 30.10 in 10.0 mi Calm Calm - N/A   Mostly Cloudy
8:53 PM 46.9 °F - 43.0 °F 86% 30.12 in 10.0 mi Calm Calm - N/A   Overcast
9:53 PM 45.0 °F - 43.0 °F 93% 30.13 in 10.0 mi Calm Calm - N/A   Overcast
10:50 PM 44.6 °F - 44.6 °F 100% 30.12 in 10.0 mi Calm Calm - 0.01 in Rain Light Rain
10:53 PM 45.0 °F - 44.1 °F 97% 30.13 in 10.0 mi Calm Calm - 0.01 in Rain Light Rain
11:17 PM 44.6 °F - 44.6 °F 100% 30.12 in 10.0 mi Calm Calm - 0.00 in Rain Light Rain
11:53 PM 44.1 °F 42.5 °F 43.0 °F 96% 30.13 in 10.0 mi WNW 3.5 mph - 0.00 in   Overcast